Live-Position
3D-Globus wird geladen...
Über Starlink 31384
Group: 3 satellites
Beschreibung wird geladen...
Nächste Überflüge
Passes for default location (London). Set your location on the main map for personalized predictions.
Höhenverlauf
Loading altitude history...
No altitude history available
Zweizeiliger Elementsatz
1 58983U 24031U 26125.50001156 .00032614 00000-0 97416-3 0 9993
2 58983 53.1608 32.9584 0000767 92.4337 102.2578 15.34336539 5807
Epoch: 5. Mai 2026 •
Age: 8 hours
Aktueller Status
Höhe 465.7 km
Geschwindigkeit 7.63 km/s
Subsatellitenpunkt -10.18°S,
58.32°E
Startdatum 15. Feb. 2024
Alter 2.2 years
Typ internet
Startgruppe
Falcon 9 •
Group 7-14 •
21 satellites
Starlink 31373
58965
Starlink 31449 58966
Starlink 31314 58967
Starlink 31356 58968
Starlink 31335 58969
Starlink 31368 58970
Starlink 31333 58971
Starlink 31351 58972
Starlink 31365 58973
Starlink 31361 58974
Starlink 31369 58975
Starlink 31324 58976
Starlink 31358 58977
Starlink 31355 58978
Starlink 31380 58979
Starlink 31353 58980
Starlink 31339 58981
Starlink 31379 58984
Starlink 31385 58985
Starlink 31229 58986
Technische Details
Klassifizierung Payload
Masse 730.00 kg
Trockenmasse 700.00 kg
Gesamtmasse 730.00 kg
Länge 0.30 m
Durchmesser 4.10 m
Spannweite 29.00 m
Form Box + pan
Hersteller SPXS
Bus-Typ Starlink V2M
Phasenstatus In Orbit
Besitzer/Staat SPXS/US
Most Searched
Loading...